Weather History for Cape Dyer, NU

Change the Weather History Date:

Sunday, May 26, 2013

  Actual Average Record
Temperature  
Mean Temperature 16 °F -  
Max Temperature 19 °F - - ()
Min Temperature 14 °F - - ()
Degree Days  
Heating Degree Days 48    
Moisture  
Dew Point -    
Average Humidity    
Maximum Humidity    
Minimum Humidity    
Precipitation  
Precipitation 0.00 in - - ()
Sea Level Pressure  
Sea Level Pressure 30.05 in    
Wind  
Wind Speed 5 mph ()    
Max Wind Speed 13 mph    
Max Gust Speed -    
Visibility 2.8 miles    
Events      
T = Trace of Precipitation, MM = Missing Value Source: Averaged Metar Reports

Daily Weather History Graph

Daily Weather History Graph

Search for Another Location

Airport:

Trip Planner

Search our weather history database for the weather conditions in past years. The results will help you decide how hot, cold, wet, or windy it might be!

Date:

Astronomy

May. 26, 2013 Rise Set
Actual Time 2:25 AM ADT 11:44 PM ADT
Civil Twilight Sun does not rise Sun does not rise
Nautical Twilight Sun does not rise Sun does not rise
Astronomical Twilight Sun does not rise Sun does not rise
Moon No Moon Rise 4:14 AM ADT (5/26)
Length of Visible Light 24h 00m
Length of Day
21h 19m
Full, 97% of the Moon is Illuminated
May 26
Full
May 31
Last Quarter
Jun 8
New
Jun 16
First Quarter
Jun 23
Full

Hourly Weather History & Observations

Time (ADT) Temp. Windchill Dew Point Humidity Pressure Visibility Wind Dir Wind Speed Gust Speed Precip Events Conditions
12:00 AM 15 °F - - % 30.08 in 0 mi Calm Calm - -  
12:00 AM 15.8 °F - - N/A% 30.08 in 0.4 mi North 2.3 mph - N/A   Unknown
12:08 AM 14.0 °F 5.1 °F - N/A% 29.87 in 4.0 mi NW 5.8 mph - N/A   Unknown
12:18 AM 14.0 °F 5.1 °F - N/A% 29.87 in 9.0 mi NW 5.8 mph - N/A   Unknown
12:40 AM 14.0 °F 6.5 °F - N/A% 29.87 in 2.5 mi NNW 4.6 mph - N/A   Unknown
12:58 AM 14.0 °F 5.1 °F - N/A% 29.88 in 9.0 mi NW 5.8 mph - N/A   Unknown
1:00 AM 14.0 °F 3.9 °F - N/A% 30.09 in 9.0 mi NW 6.9 mph - N/A   Unknown
1:28 AM 14.0 °F 5.1 °F - N/A% 29.88 in 9.0 mi West 5.8 mph - N/A   Unknown
2:00 AM 14.0 °F 2.9 °F - N/A% 30.10 in 9.0 mi WNW 8.1 mph - N/A   Unknown
2:37 AM 14.0 °F 2.9 °F - N/A% 29.89 in 9.0 mi NW 8.1 mph - N/A   Unknown
3:00 AM 15 °F - - % 30.11 in 9 mi NW 5.8 mph - -  
3:00 AM 14.0 °F 6.5 °F - N/A% 30.11 in 9.0 mi NW 4.6 mph - N/A   Unknown
3:09 AM 14.0 °F - - N/A% 29.90 in 2.8 mi North 2.3 mph - N/A   Unknown
3:11 AM 14.0 °F - - N/A% 29.90 in 1.0 mi Calm Calm - N/A   Unknown
3:12 AM 14.0 °F - - N/A% 29.90 in 0.6 mi NNE 2.3 mph - N/A   Unknown
3:14 AM 14.0 °F - - N/A% 29.90 in 0.4 mi North 2.3 mph - N/A   Unknown
3:16 AM 14.0 °F - - N/A% 29.90 in 0.1 mi NNE 2.3 mph - N/A   Unknown
3:24 AM 15.8 °F - - N/A% 29.90 in 0.1 mi NNE 2.3 mph - N/A   Unknown
3:35 AM 14.0 °F - - N/A% 29.91 in 0.6 mi NE 2.3 mph - N/A   Unknown
3:37 AM 14.0 °F - - N/A% 29.91 in 1.2 mi Calm Calm - N/A   Unknown
3:47 AM 14.0 °F - - N/A% 29.91 in 2.5 mi Calm Calm - N/A   Unknown
3:57 AM 14.0 °F 8.2 °F - N/A% 29.91 in 7.0 mi NNE 3.5 mph - N/A   Unknown
4:00 AM 14.0 °F 6.5 °F - N/A% 30.13 in 8.0 mi North 4.6 mph - N/A   Unknown
4:02 AM 15.8 °F 8.6 °F - N/A% 29.91 in 9.0 mi North 4.6 mph - N/A   Unknown
4:47 AM 14.0 °F - - N/A% 29.92 in 2.0 mi ESE 2.3 mph - N/A   Unknown
4:48 AM 14.0 °F - - N/A% 29.92 in 1.1 mi SE 2.3 mph - N/A   Unknown
4:49 AM 14.0 °F - - N/A% 29.92 in 0.6 mi SE 2.3 mph - N/A   Unknown
4:51 AM 14.0 °F 8.2 °F - N/A% 29.92 in 0.4 mi ESE 3.5 mph - N/A   Unknown
4:54 AM 14.0 °F - - N/A% 29.92 in 0.1 mi ESE 2.3 mph - N/A   Unknown
5:00 AM 14.0 °F - - N/A% 30.14 in 0.1 mi Calm Calm - N/A   Unknown
5:08 AM 15.8 °F - - N/A% 29.92 in 0.5 mi NNW 2.3 mph - N/A   Unknown
5:11 AM 15.8 °F - - N/A% 29.92 in 1.5 mi NNW 2.3 mph - N/A   Unknown
5:22 AM 15.8 °F - - N/A% 29.92 in 9.0 mi Calm Calm - N/A   Unknown
6:00 AM 15 °F - - % 30.15 in 9 mi West 4.6 mph - -  
6:00 AM 14.0 °F 6.5 °F - N/A% 30.15 in 9.0 mi WNW 4.6 mph - N/A   Unknown
7:00 AM 15.8 °F 8.6 °F - N/A% 30.16 in 9.0 mi WNW 4.6 mph - N/A   Unknown
8:00 AM 15.8 °F 10.2 °F - N/A% 30.18 in 9.0 mi West 3.5 mph - N/A   Unknown
9:00 AM 19 °F - - % 30.19 in 9 mi Calm Calm - -  
9:00 AM 19.4 °F - - N/A% 30.19 in 9.0 mi Calm Calm - N/A   Unknown
10:00 AM 17.6 °F 12.3 °F - N/A% 30.21 in 8.0 mi SW 3.5 mph - N/A   Unknown
11:00 AM 17.6 °F 10.7 °F - N/A% 30.22 in 3.5 mi SSW 4.6 mph - N/A   Unknown
12:00 PM 18 °F - - % 30.22 in 7 mi SSW 5.8 mph - -  
12:00 PM 17.6 °F 9.3 °F - N/A% 30.22 in 7.0 mi SSW 5.8 mph - N/A   Unknown
12:47 PM 17.6 °F 7.3 °F - N/A% 30.00 in 3.0 mi SSW 8.1 mph - N/A   Unknown
12:59 PM 17.6 °F 7.3 °F - N/A% 30.01 in 3.5 mi South 8.1 mph - N/A   Unknown
1:00 PM 17.6 °F 7.3 °F - N/A% 30.22 in 3.5 mi South 8.1 mph - N/A   Unknown
1:40 PM 17.6 °F 5.7 °F - N/A% 30.01 in 2.4 mi South 10.4 mph - N/A   Unknown
1:44 PM 17.6 °F 6.4 °F - N/A% 30.01 in 1.1 mi South 9.2 mph - N/A   Unknown
1:45 PM 17.6 °F 6.4 °F - N/A% 30.01 in 1.0 mi South 9.2 mph - N/A   Unknown
1:46 PM 17.6 °F 5.7 °F - N/A% 30.01 in 0.6 mi South 10.4 mph - N/A   Unknown
1:48 PM 17.6 °F 6.4 °F - N/A% 30.01 in 0.4 mi South 9.2 mph - N/A   Unknown
1:59 PM 17.6 °F 5.7 °F - N/A% 30.01 in 0.5 mi South 10.4 mph - N/A   Unknown
2:00 PM 17.6 °F 6.4 °F - N/A% 30.23 in 0.5 mi South 9.2 mph - N/A   Unknown
2:19 PM 17.6 °F 5.7 °F - N/A% 30.02 in 0.4 mi South 10.4 mph - N/A   Unknown
2:26 PM 17.6 °F 5.0 °F - N/A% 30.02 in 0.1 mi South 11.5 mph - N/A   Unknown
2:59 PM 17.6 °F 5.0 °F - N/A% 30.02 in 0.4 mi South 11.5 mph - N/A   Unknown
3:00 PM 17 °F - - % 30.24 in 0 mi South 11.5 mph - -  
3:00 PM 17.6 °F 5.0 °F - N/A% 30.24 in 0.4 mi South 11.5 mph - N/A   Unknown
3:09 PM 17.6 °F 5.0 °F - N/A% 30.02 in 0.1 mi South 11.5 mph - N/A   Unknown
3:29 PM 17.6 °F 4.3 °F - N/A% 30.02 in 0.2 mi South 12.7 mph - N/A   Unknown
4:00 PM 17.6 °F 4.3 °F - N/A% 30.24 in 0.2 mi South 12.7 mph - N/A   Unknown
4:13 PM 17.6 °F 5.0 °F - N/A% 30.02 in 0.1 mi South 11.5 mph - N/A   Unknown
5:00 PM 17.6 °F 5.0 °F - N/A% 30.25 in 0.1 mi South 11.5 mph - N/A   Unknown
5:11 PM 17.6 °F 4.3 °F - N/A% 30.03 in 0.5 mi South 12.7 mph - N/A   Unknown
5:26 PM 17.6 °F 5.0 °F - N/A% 30.04 in 0.4 mi South 11.5 mph - N/A   Unknown
5:38 PM 17.6 °F 5.7 °F - N/A% 30.04 in 0.8 mi South 10.4 mph - N/A   Unknown
5:43 PM 17.6 °F 5.7 °F - N/A% 30.04 in 0.6 mi South 10.4 mph - N/A   Unknown
5:46 PM 17.6 °F 5.7 °F - N/A% 30.04 in 0.4 mi South 10.4 mph - N/A   Unknown
5:55 PM 17.6 °F 5.7 °F - N/A% 30.04 in 1.0 mi South 10.4 mph - N/A   Unknown
5:57 PM 17.6 °F 6.4 °F - N/A% 30.04 in 1.8 mi South 9.2 mph - N/A   Unknown
6:00 PM 17 °F - - % 30.26 in 3 mi South 9.2 mph - -  
6:00 PM 17.6 °F 6.4 °F - N/A% 30.26 in 2.6 mi South 9.2 mph - N/A   Unknown
6:32 PM 17.6 °F 6.4 °F - N/A% 30.04 in 1.4 mi South 9.2 mph - N/A   Unknown
6:41 PM 17.6 °F 7.3 °F - N/A% 30.04 in 4.0 mi South 8.1 mph - N/A   Unknown
7:00 PM 17.6 °F 7.3 °F - N/A% 30.26 in 6.0 mi South 8.1 mph - N/A   Unknown
7:10 PM 17.6 °F 7.3 °F - N/A% 30.04 in 3.0 mi South 8.1 mph - N/A   Unknown
7:12 PM 17.6 °F 7.3 °F - N/A% 30.04 in 1.4 mi SSW 8.1 mph - N/A   Unknown
7:22 PM 17.6 °F 7.3 °F - N/A% 30.04 in 4.0 mi South 8.1 mph - N/A   Unknown
7:37 PM 15.8 °F 6.1 °F - N/A% 30.04 in 3.0 mi South 6.9 mph - N/A   Unknown
7:39 PM 15.8 °F 6.1 °F - N/A% 30.04 in 1.0 mi South 6.9 mph - N/A   Unknown
7:40 PM 15.8 °F 6.1 °F - N/A% 30.04 in 0.6 mi South 6.9 mph - N/A   Unknown
7:41 PM 15.8 °F 5.1 °F - N/A% 30.04 in 0.4 mi SSW 8.1 mph - N/A   Unknown
7:51 PM 15.8 °F 6.1 °F - N/A% 30.05 in 0.8 mi SSW 6.9 mph - N/A   Unknown
7:54 PM 15.8 °F 5.1 °F - N/A% 30.05 in 0.6 mi SSW 8.1 mph - N/A   Unknown
7:56 PM 15.8 °F 5.1 °F - N/A% 30.05 in 0.4 mi SSW 8.1 mph - N/A   Unknown
7:58 PM 15.8 °F 5.1 °F - N/A% 30.04 in 0.1 mi South 8.1 mph - N/A   Unknown
8:00 PM 15.8 °F 5.1 °F - N/A% 30.26 in 0.1 mi South 8.1 mph - N/A   Unknown
8:30 PM 15.8 °F 5.1 °F - N/A% 30.05 in 0.1 mi SSW 8.1 mph - N/A   Unknown
9:00 PM 16 °F - - % 30.26 in 0 mi SSW 8.1 mph - -  
9:00 PM 15.8 °F 4.2 °F - N/A% 30.26 in 0.1 mi SSW 9.2 mph - N/A   Unknown
10:00 PM 15.8 °F 4.2 °F - N/A% 30.26 in 0.1 mi SSW 9.2 mph - N/A   Unknown
10:28 PM 15.8 °F 4.2 °F - N/A% 30.04 in 0.1 mi South 9.2 mph - N/A   Unknown
11:00 PM 15.8 °F 5.1 °F - N/A% 30.26 in 0.1 mi SSW 8.1 mph - N/A   Unknown
11:04 PM 15.8 °F 5.1 °F - N/A% 30.04 in 0.1 mi SSW 8.1 mph - N/A   Unknown